Time,TemperatureF,DewpointF,PressureIn,WindDirection,WindDirectionDegrees,WindSpeedMPH,WindSpeedGustMPH,Humidity,HourlyPrecipIn,Conditions,Clouds,dailyrainin,SoftwareType,DateUTC
2013-07-09 00:01:00,67.0,36.0,-100.00,SSW,206,21.0,23.0,32,0.00,,,-99.99,,2013-07-09 06:01:00,
2013-07-09 00:11:00,68.0,36.0,-100.00,SSW,205,21.0,26.0,31,0.00,,,-99.99,,2013-07-09 06:11:00,
2013-07-09 00:33:00,67.0,36.0,-100.00,WSW,246,12.0,16.0,31,0.00,,,-99.99,,2013-07-09 06:33:00,
2013-07-09 00:43:00,67.0,36.0,-100.00,WSW,239,11.0,16.0,32,0.00,,,-99.99,,2013-07-09 06:43:00,
2013-07-09 01:02:00,68.0,36.0,-100.00,SSW,210,11.0,17.0,31,0.00,,,-99.99,,2013-07-09 07:02:00,
2013-07-09 01:43:00,68.0,35.0,-100.00,SSW,199,23.0,26.0,29,0.00,,,-99.99,,2013-07-09 07:43:00,
2013-07-09 02:11:00,67.0,35.0,-100.00,SSW,200,24.0,27.0,31,0.00,,,-99.99,,2013-07-09 08:11:00,
2013-07-09 02:43:00,66.0,35.0,-100.00,SSW,199,24.0,28.0,32,0.00,,,-99.99,,2013-07-09 08:43:00,
2013-07-09 03:02:00,67.0,35.0,-100.00,SSW,205,23.0,27.0,31,0.00,,,-99.99,,2013-07-09 09:02:00,
2013-07-09 03:42:00,67.0,36.0,-100.00,SSW,208,24.0,29.0,32,0.00,,,-99.99,,2013-07-09 09:42:00,
2013-07-09 04:01:00,68.0,36.0,-100.00,SSW,206,24.0,26.0,30,0.00,,,-99.99,,2013-07-09 10:01:00,
2013-07-09 05:33:00,68.0,38.0,-100.00,SW,224,22.0,29.0,33,0.00,,,-99.99,,2013-07-09 11:33:00,
2013-07-09 05:42:00,67.0,38.0,-100.00,SW,216,24.0,30.0,34,0.00,,,-99.99,,2013-07-09 11:42:00,
2013-07-09 07:43:00,68.0,39.0,-100.00,SSW,209,21.0,24.0,34,0.00,,,-99.99,,2013-07-09 13:43:00,
2013-07-09 08:43:00,72.0,39.0,-100.00,SSW,203,12.0,15.0,30,0.00,,,-99.99,,2013-07-09 14:43:00,
2013-07-09 12:42:00,79.0,37.0,-100.00,NNW,336,9.0,12.0,22,0.00,,,-99.99,,2013-07-09 18:42:00,
2013-07-09 13:42:00,83.0,32.0,-100.00,NNW,336,11.0,14.0,16,0.00,,,-99.99,,2013-07-09 19:42:00,
2013-07-09 14:11:00,83.0,33.0,-100.00,West,281,9.0,14.0,17,0.00,,,-99.99,,2013-07-09 20:11:00,
2013-07-09 14:42:00,86.0,29.0,-100.00,West,272,9.0,12.0,13,0.00,,,-99.99,,2013-07-09 20:42:00,
2013-07-09 15:01:00,88.0,29.0,-100.00,WSW,258,16.0,23.0,12,0.00,,,-99.99,,2013-07-09 21:01:00,
2013-07-09 15:11:00,87.0,30.0,-100.00,West,261,14.0,20.0,13,0.00,,,-99.99,,2013-07-09 21:11:00,
2013-07-09 15:42:00,87.0,30.0,-100.00,WSW,243,11.0,17.0,13,0.00,,,-99.99,,2013-07-09 21:42:00,
2013-07-09 16:42:00,83.0,29.0,-100.00,WSW,257,11.0,13.0,14,0.00,,,-99.99,,2013-07-09 22:42:00,
2013-07-09 17:02:00,83.0,29.0,-100.00,WSW,254,7.0,9.0,14,0.00,,,-99.99,,2013-07-09 23:02:00,
2013-07-09 17:11:00,83.0,29.0,-100.00,WSW,250,11.0,13.0,14,0.00,,,-99.99,,2013-07-09 23:11:00,
2013-07-09 17:43:00,83.0,28.0,-100.00,West,267,7.0,9.0,13,0.00,,,-99.99,,2013-07-09 23:43:00,
2013-07-09 18:11:00,83.0,28.0,-100.00,West,263,4.0,6.0,14,0.00,,,-99.99,,2013-07-10 00:11:00,
2013-07-09 18:42:00,83.0,27.0,-100.00,NW,309,6.0,9.0,13,0.00,,,-99.99,,2013-07-10 00:42:00,
2013-07-09 19:11:00,83.0,26.0,-100.00,NW,323,6.0,10.0,13,0.00,,,-99.99,,2013-07-10 01:11:00,
2013-07-09 19:33:00,82.0,27.0,-100.00,NW,316,6.0,7.0,13,0.00,,,-99.99,,2013-07-10 01:33:00,
2013-07-09 19:43:00,81.0,27.0,-100.00,NW,313,8.0,10.0,14,0.00,,,-99.99,,2013-07-10 01:43:00,
2013-07-09 20:11:00,78.0,30.0,-100.00,SSW,208,4.0,5.0,17,0.00,,,-99.99,,2013-07-10 02:11:00,
2013-07-09 20:43:00,77.0,30.0,-100.00,NE,54,0.0,1.0,18,0.00,,,-99.99,,2013-07-10 02:43:00,
2013-07-09 21:01:00,76.0,30.0,-100.00,SSE,148,1.0,2.0,18,0.00,,,-99.99,,2013-07-10 03:01:00,
2013-07-09 21:11:00,75.0,30.0,-100.00,SSW,199,2.0,4.0,19,0.00,,,-99.99,,2013-07-10 03:11:00,
2013-07-09 21:22:00,76.0,30.0,-100.00,South,181,2.0,4.0,19,0.00,,,-99.99,,2013-07-10 03:22:00,
2013-07-09 21:43:00,74.0,30.0,-100.00,SW,224,0.0,1.0,19,0.00,,,-99.99,,2013-07-10 03:43:00,
2013-07-09 22:11:00,74.0,29.0,-100.00,South,181,2.0,3.0,19,0.00,,,-99.99,,2013-07-10 04:11:00,
2013-07-09 22:43:00,73.0,32.0,-100.00,NNW,342,3.0,6.0,21,0.00,,,-99.99,,2013-07-10 04:43:00,
2013-07-09 23:02:00,71.0,35.0,-100.00,NNE,20,1.0,2.0,26,0.00,,,-99.99,,2013-07-10 05:02:00,
2013-07-09 23:11:00,72.0,36.0,-100.00,NNE,23,2.0,6.0,27,0.00,,,-99.99,,2013-07-10 05:11:00,
2013-07-09 23:42:00,72.0,37.0,-100.00,ENE,58,2.0,3.0,28,0.00,,,-99.99,,2013-07-10 05:42:00,